Location: Newark
(60.6561°N, 46.5772°E)
Time: 01:49:05
(UTC+00:00)

Altair - Visible Passes

Search period start: 14 October 2019 00:00
Search period end: 24 October 2019 00:00
Orbit: 1501 x 1683 km, 47.2° (Epoch: 12 October)

Date Brightness Start Highest point End Pass type
(mag) Time Alt. Az. Time Alt. Az. Time Alt. Az.
14 Oct 9.2 15:08:14 10° W 15:15:56 26° SSW 15:23:43 10° SSE visible
14 Oct 9.8 17:16:28 10° WSW 17:17:44 10° SW 17:19:00 10° SW visible
15 Oct 9.3 14:43:04 10° W 14:50:54 27° SSW 14:58:50 10° SSE visible
15 Oct 9.7 16:50:01 10° WSW 16:52:48 11° SW 16:55:35 10° SW visible
16 Oct 9.3 14:17:54 10° W 14:25:51 28° SSW 14:33:56 10° SSE visible
16 Oct 9.7 16:24:11 10° WSW 16:27:51 13° SW 16:31:31 10° SSW visible
17 Oct 9.7 15:58:34 10° WSW 16:02:53 14° SW 16:07:14 10° SSW visible
18 Oct 9.8 15:33:04 10° WSW 15:37:56 15° SW 15:42:49 10° SSW visible
19 Oct 9.8 15:07:38 10° W 15:12:57 16° SW 15:18:18 10° SSW visible
20 Oct 9.8 14:42:16 10° W 14:47:58 17° SW 14:53:43 10° S visible
21 Oct 9.8 14:16:57 10° W 14:22:59 18° SW 14:29:05 10° S visible
